Theta_e
311 306 306 307 308 310 308 307 306 307 308 310 310 309 310 311 310 309 309 309 308 308 308 308 308 308 308 307 306 307 306 305 304 303 304 305 307 311 314 315 315 314 314 321
304 305 308 310 309 307 309 307 306 307 309 310 310 309 309 310 310 308 307 307 307 307 307 307 307 308 308 308 307 306 307 306 305 302 302 303 304 306 308 309 311 315 314 314
304 306 309 310 307 308 304 306 306 307 308 309 310 310 310 309 308 307 307 307 306 306 306 305 305 305 308 307 307 306 306 306 305 304 301 301 302 303 304 305 307 310 311 312
305 307 308 306 306 306 307 305 306 307 307 308 307 309 310 309 306 306 306 306 306 306 305 305 305 305 306 307 306 306 306 306 305 304 302 301 301 303 305 305 305 305 308 309
305 304 305 304 304 306 305 305 307 307 307 309 309 304 310 310 306 305 306 306 306 305 306 305 305 305 307 307 306 306 305 306 305 305 303 302 301 301 302 301 302 303 303 304
304 304 304 304 305 306 307 308 308 309 308 309 310 306 309 307 307 306 306 306 306 306 306 305 305 305 306 306 306 306 306 306 305 305 303 302 301 300 300 300 301 301 301 300
306 304 304 306 307 306 308 312 312 313 308 313 310 308 307 306 307 306 306 306 306 306 306 306 306 306 306 306 306 306 305 306 305 304 303 302 302 300 300 300 301 301 300 300
305 304 304 305 305 306 306 309 312 314 313 309 311 308 308 307 307 307 306 306 306 306 306 306 305 307 306 306 306 306 305 306 305 304 303 302 301 300 300 300 300 300 300 300
308 304 304 304 304 306 308 306 306 308 311 307 307 308 307 305 306 305 306 306 306 306 306 305 305 306 306 306 306 306 305 306 305 304 303 302 302 301 300 299 299 298 298 300
309 304 304 303 303 304 308 306 305 304 305 308 311 308 307 304 304 305 306 306 306 305 305 305 305 305 305 305 305 306 305 305 304 304 303 302 301 301 300 299 299 299 298 298
310 303 304 303 304 305 303 304 306 307 306 307 309 306 306 304 304 303 305 306 306 305 305 305 304 304 304 304 305 305 305 304 304 304 303 302 301 301 299 298 298 298 298 298
309 304 303 306 304 303 304 308 306 300 304 304 304 303 305 304 305 305 305 305 305 305 305 305 304 304 303 304 304 304 304 304 304 303 303 302 301 300 299 298 298 296 296 298
305 306 300 305 304 302 305 303 302 298 301 304 303 306 305 306 305 305 305 305 305 305 305 305 304 304 303 303 303 303 303 303 303 303 303 302 301 300 300 298 298 296 295 297
307 307 304 304 305 301 297 301 296 294 294 300 303 306 305 304 304 305 304 304 304 304 304 304 304 304 303 303 303 303 302 303 303 303 303 302 301 300 300 299 297 296 295 296
305 300 299 303 307 305 304 301 302 295 298 299 302 301 301 301 303 305 304 303 303 304 303 304 304 304 303 303 303 303 303 302 303 302 302 302 301 300 300 299 296 297 296 295
305 303 305 303 304 304 303 304 304 302 300 299 299 299 300 303 304 305 304 304 304 304 304 304 304 304 303 303 303 303 303 302 302 302 302 301 300 300 300 299 295 295 296 296
303 301 300 305 305 303 299 302 303 304 303 301 301 301 303 304 305 305 304 303 303 303 304 304 304 304 303 303 303 303 302 302 301 301 301 301 300 300 299 299 294 295 296 296
304 303 300 300 303 296 303 304 304 303 304 304 304 303 304 303 303 304 303 303 303 303 302 302 302 302 303 303 303 303 303 303 302 302 301 300 300 300 299 299 294 294 296 294
305 302 299 298 303 304 307 304 303 303 302 304 303 304 303 303 303 303 303 301 301 301 301 301 301 300 300 300 300 300 302 303 303 302 301 301 300 300 299 298 294 294 294 294
305 304 301 300 299 300 305 304 304 303 301 304 303 302 302 301 299 301 300 300 300 300 300 300 300 300 299 299 299 299 299 299 303 303 302 301 301 300 299 297 294 294 294 294
302 301 298 298 300 304 306 303 303 302 302 301 301 301 301 300 301 300 300 300 300 300 300 300 300 300 300 300 299 299 299 300 299 301 302 302 300 299 298 295 294 295 294 294
302 299 296 300 297 302 303 303 302 302 301 301 301 300 299 299 299 299 299 299 299 300 300 300 300 300 300 299 299 299 299 299 299 302 302 301 300 300 298 295 295 294 294 294
303 302 303 302 302 305 304 301 301 301 300 299 299 299 298 298 299 299 299 300 300 300 300 300 300 300 300 300 299 299 299 299 299 301 301 301 300 296 297 295 294 294 293 294
305 305 301 302 305 305 301 301 300 300 299 299 298 297 297 297 297 296 296 297 297 297 297 298 298 298 298 299 299 299 300 300 300 300 301 297 295 296 295 294 294 294 294 293
303 304 303 302 304 301 300 299 299 299 298 297 297 296 296 296 295 295 294 294 294 293 292 292 292 292 294 295 297 298 299 299 300 300 299 297 296 294 294 294 293 293 292 292
303 302 300 300 300 300 299 299 298 297 297 297 296 296 296 295 295 295 294 294 294 294 293 291 289 290 290 292 292 293 294 294 295 295 294 294 294 294 293 293 293 292 291 291
Wind_Speed
12 10 5 7 7 5 12 12 8 2 3 8 10 8 7 17 18 19 18 17 16 18 17 17 18 18 20 23 24 26 29 31 30 31 29 24 20 17 16 18 23 25 24 17
8 8 7 9 10 14 9 13 6 2 2 6 11 8 7 17 14 16 17 16 14 11 12 13 17 18 17 18 24 27 26 28 31 28 27 26 23 19 17 17 19 23 26 22
8 4 8 9 12 10 11 6 5 4 1 2 8 3 7 12 19 16 13 11 9 6 9 12 15 16 12 16 18 23 20 24 29 29 26 25 25 25 25 25 24 21 23 23
7 4 7 9 6 5 4 5 3 4 3 3 6 3 6 9 8 17 15 10 6 4 9 12 14 15 17 14 18 21 19 21 26 28 26 25 25 25 23 24 22 22 20 23
1 7 7 7 3 4 3 2 4 4 5 3 4 5 5 10 8 7 15 11 9 13 13 13 14 14 11 16 19 20 20 20 24 27 25 23 24 22 20 23 22 22 23 24
4 7 5 3 1 2 6 3 5 3 1 2 3 5 5 5 6 7 15 12 12 11 12 12 9 10 13 17 19 17 20 16 21 24 24 22 24 22 22 23 23 24 24 23
4 3 3 6 3 3 2 5 3 4 3 4 3 4 4 7 9 14 13 14 11 10 9 7 10 8 8 12 15 15 18 14 18 24 25 23 24 22 22 21 21 24 25 24
4 4 7 8 3 2 4 3 4 5 2 3 1 3 5 7 14 13 13 13 10 6 5 5 8 7 16 7 12 14 17 15 17 21 23 23 24 22 21 20 19 20 22 22
5 2 3 9 8 4 2 4 1 4 2 2 3 3 5 10 11 11 11 11 9 6 5 6 6 10 12 6 11 13 15 14 17 20 22 24 26 25 23 21 20 20 20 20
3 5 3 3 2 8 4 3 3 3 3 2 5 4 4 8 8 9 10 9 7 4 3 5 6 7 8 10 10 11 11 13 17 18 21 23 25 25 23 21 21 21 20 19
4 5 1 3 1 4 1 2 4 3 3 4 1 4 5 6 7 7 6 7 4 3 3 5 7 9 8 9 11 12 14 15 17 19 23 23 23 25 24 21 20 21 21 20
1 6 3 2 4 9 3 3 5 4 4 2 3 5 8 14 11 8 7 7 7 9 6 8 7 8 8 8 10 12 15 16 18 21 23 24 22 24 24 21 21 21 19 19
4 1 3 3 4 5 4 3 3 3 3 4 5 5 11 11 5 9 14 14 11 9 7 7 12 15 13 11 12 14 14 17 19 20 22 26 24 23 23 22 22 22 19 18
4 2 5 6 5 4 1 2 2 5 3 3 5 3 2 5 3 10 6 1 6 7 9 13 16 15 14 13 13 13 14 15 16 18 23 26 25 22 23 23 22 20 19 20
4 3 4 4 2 4 5 5 8 5 5 5 2 4 8 10 16 12 6 9 11 11 11 13 15 15 14 16 14 14 15 16 19 22 24 25 24 21 22 24 22 19 19 19
2 1 2 2 6 7 7 11 13 12 7 9 11 16 20 26 17 12 14 8 12 14 18 14 15 20 22 17 15 17 19 20 20 22 21 23 22 22 25 26 22 20 19 23
4 4 2 0 6 6 7 8 12 10 10 10 8 11 17 14 12 8 6 11 15 19 20 23 21 17 18 15 18 23 25 23 22 25 25 22 20 26 29 28 24 21 21 23
5 4 2 2 3 1 6 1 7 5 5 8 6 4 12 14 17 12 20 21 23 22 24 24 23 22 22 25 28 29 29 29 26 25 26 23 23 27 30 29 26 22 23 24
16 4 2 3 2 5 2 3 3 1 4 12 7 16 19 20 17 19 23 28 26 26 27 28 28 30 31 32 31 31 33 33 30 23 24 26 26 29 31 32 26 23 25 24
12 8 4 1 3 5 4 5 7 3 1 14 18 18 21 22 6 9 28 31 34 32 31 31 32 34 34 34 34 36 36 36 37 36 36 26 30 31 32 31 24 22 24 27
3 2 5 2 2 6 3 10 4 3 5 17 19 19 20 12 16 25 28 29 29 31 32 33 33 33 33 31 32 34 37 37 35 39 34 29 29 27 31 28 22 23 26 26
6 5 3 2 2 6 1 6 3 4 17 17 17 19 20 21 23 27 29 31 31 32 32 32 33 33 31 32 33 36 38 37 35 30 29 33 32 30 31 26 25 24 24 26
4 6 5 6 5 6 3 22 16 14 16 16 15 16 18 21 23 23 23 22 23 22 22 24 26 25 26 28 30 35 36 36 34 34 37 34 27 26 27 26 27 24 24 23
4 18 3 5 3 4 22 17 15 11 11 12 11 13 14 18 21 22 24 25 27 31 34 34 33 34 35 35 34 33 32 31 24 29 24 22 23 23 26 27 23 23 22 26
1 8 6 3 5 21 19 15 9 9 8 8 9 11 12 15 16 19 23 26 29 31 30 32 34 34 34 34 34 35 33 32 29 28 24 25 22 23 21 22 21 23 26 25
2 2 3 2 8 14 11 9 8 7 7 7 10 9 10 11 16 18 20 22 26 29 34 39 36 36 36 36 35 35 35 28 19 14 11 16 19 20 20 23 24 22 25 22
Wind_Direction
61 67 31 345 330 45 94 91 99 64 331 114 128 124 119 105 87 91 90 82 69 54 46 35 25 19 8 8 14 24 15 7 14 16 19 18 12 2 356 354 356 352 359 337
45 50 318 348 38 51 88 112 114 76 324 98 135 141 147 114 109 97 89 82 69 48 30 19 15 8 2 1 356 4 18 3 4 13 18 19 17 14 9 1 1 4 355 2
102 195 21 70 34 40 36 45 30 123 146 291 116 113 129 128 124 113 104 92 70 44 36 28 17 2 359 14 12 7 16 1 357 5 10 14 14 14 16 10 5 358 351 357
83 345 99 73 61 10 92 354 335 300 141 215 154 192 176 160 153 139 136 134 114 52 43 23 9 8 3 15 12 8 9 7 355 357 7 14 17 16 17 7 3 3 355 350
325 34 60 76 40 4 134 294 4 341 336 23 250 92 205 167 173 151 146 130 77 71 48 28 9 8 28 13 8 4 360 9 355 353 3 6 9 10 7 5 7 7 3 359
87 60 36 21 214 92 184 213 202 214 150 41 234 120 234 168 141 135 116 91 87 53 31 28 27 3 356 355 352 352 354 9 352 348 357 0 1 2 0 1 4 2 1 1
70 57 102 9 296 209 263 65 21 18 15 210 111 58 207 141 115 119 111 107 86 70 46 27 13 351 344 354 342 342 358 0 347 343 351 356 356 357 359 359 357 354 355 359
130 325 359 349 38 352 42 85 141 169 159 302 161 183 234 139 125 126 123 114 99 73 57 17 4 338 346 2 336 337 348 345 340 340 351 350 349 352 353 356 352 351 349 351
118 71 26 32 30 20 14 49 218 103 290 69 203 44 10 131 128 132 126 116 104 96 54 15 359 358 7 358 336 331 341 331 337 335 341 342 343 347 350 350 349 349 348 347
95 109 191 127 280 21 84 165 65 4 96 271 294 138 227 167 159 151 116 113 108 93 26 341 328 330 330 336 333 327 328 325 328 324 334 334 338 340 343 344 346 344 345 346
84 106 155 96 197 166 52 59 49 116 124 165 245 287 176 137 123 108 98 142 176 217 272 300 315 318 311 313 312 319 320 316 317 317 324 327 330 331 337 339 341 341 341 343
64 125 128 106 30 8 4 133 140 125 256 229 153 271 126 119 132 169 204 225 233 230 247 260 292 293 299 305 303 309 313 310 304 305 312 322 324 325 331 335 336 337 338 341
185 40 90 17 7 4 48 29 105 105 76 219 138 256 151 156 170 238 229 227 230 235 252 260 297 279 276 275 286 298 303 303 299 296 307 315 320 321 326 330 330 334 335 336
116 128 151 185 193 131 137 171 181 117 115 234 224 244 159 37 298 312 25 343 225 252 267 276 281 275 271 280 287 287 289 303 291 296 307 308 315 318 318 321 321 326 330 329
100 118 101 218 157 153 181 176 175 176 201 163 250 313 302 306 292 306 334 312 299 302 292 294 292 285 281 295 280 275 283 286 290 295 296 299 308 311 306 311 314 317 320 321
65 181 89 299 223 237 249 210 194 204 220 254 267 280 272 273 282 323 311 318 335 316 301 281 291 297 295 285 280 284 291 285 281 282 282 297 302 298 297 304 307 309 311 312
117 115 86 207 47 30 322 226 211 197 195 198 208 234 251 267 277 301 318 310 298 297 315 311 290 292 293 289 298 299 296 287 279 279 282 284 287 285 292 300 302 304 303 308
111 101 91 177 56 24 240 146 137 154 195 196 202 265 30 28 16 26 48 20 357 347 342 339 338 333 324 316 306 302 290 287 280 273 274 278 274 277 287 294 297 299 300 307
140 114 84 125 211 275 344 31 66 79 17 51 63 35 23 11 4 347 347 347 341 337 332 327 324 321 317 315 313 311 294 282 272 265 266 280 269 277 284 290 291 295 300 307
148 132 119 101 138 216 218 134 79 61 144 31 39 33 24 18 23 329 339 332 331 332 328 324 321 317 314 312 310 306 302 300 276 270 287 261 272 274 279 289 288 294 299 304
113 60 152 173 215 288 253 110 88 125 231 51 42 26 12 9 334 330 332 327 323 321 320 317 314 312 310 311 312 309 307 297 294 282 274 255 261 268 282 286 285 286 293 298
163 138 185 143 110 264 305 134 129 114 59 43 39 28 16 358 346 338 332 329 328 325 323 321 317 315 314 314 314 309 306 307 302 276 252 248 257 269 280 278 277 282 291 294
176 171 174 166 209 209 106 106 87 77 67 44 32 16 6 358 354 354 356 354 350 351 342 330 333 336 339 335 325 318 314 312 298 280 273 274 268 257 273 267 274 283 289 291
206 187 131 99 251 89 88 80 71 67 60 37 23 14 356 355 351 354 347 345 346 335 327 326 328 328 327 323 322 315 318 311 301 293 283 271 247 257 262 264 273 284 285 289
119 159 178 180 149 92 68 64 74 57 32 26 5 0 353 350 352 351 347 348 347 349 353 357 356 353 345 337 332 322 310 308 294 287 278 262 265 279 268 275 276 282 288 290
35 330 144 151 84 96 71 64 62 43 31 3 356 344 339 343 343 342 345 344 343 342 342 340 340 340 341 346 348 343 330 327 321 284 267 277 277 277 284 282 282 286 294 296